Weather Roundup
Issued by NWS Corpus Christi, TX

Current Version | Previous Version | Text Only | Print | Product List | Glossary On
Versions: 1 2 3 4 5 6 7 8 9 10 11 12 13 14 15 16 17 18 19 20 21 22 23 24 25 26 27 28 29 30 31 32 33 34 35 36 37 38 39 40 41 42 43 44 45 46 47 48 49 50
000
ASUS44 KCRP 190610
HRRCRP

SOUTH TEXAS REGIONAL WEATHER ROUNDUP
NATIONAL WEATHER SERVICE CORPUS CHRISTI TX
100 AM CDT FRI SEP 19 2014


TXZ229>244-190700-
...CORPUS CHRISTI AREA OBSERVATIONS...

CITY           SKY/WX    TMP DP  RH WIND       PRES   REMARKS
CORPUS CHRISTI PTCLDY    79  76  90 S7        29.85F
NAS CORPUS CHR CLEAR     82  78  88 S12       29.85S HX  91
ROCKPORT       PTCLDY    83  76  79 SE8       29.85R HX  91
KINGSVILLE NAS CLEAR     78  78 100 S5        29.85F
ALICE          CLEAR     77  76  96 SE3       29.85F
FALFURRIAS     CLEAR    N/A N/A N/A CALM      29.86S
$$

...VICTORIA AREA OBSERVATIONS...

CITY           SKY/WX    TMP DP  RH WIND       PRES   REMARKS
VICTORIA       CLOUDY    78  76  93 CALM      29.86F
BEEVILLE       FAIR      77  77  98 S3        29.85F
PLEASANTON     MOCLDY    80  73  78 E5        29.87F
SAN ANTONIO    MOCLDY    76  72  87 CALM      29.89F
$$

...LAREDO AREA OBSERVATIONS...

CITY           SKY/WX    TMP DP  RH WIND       PRES   REMARKS
LAREDO         CLEAR     82  73  74 SE9       29.87S
COTULLA        CLEAR     80  74  81 SE13      29.85R
DEL RIO        CLOUDY    83  71  67 SE3       29.85R
MCALLEN        CLEAR     79  77  94 SE7       29.85S
HEBBRONVILLE     N/A     78  74  89 SE7       29.88F
$$

...OTHER TEXAS OBSERVATIONS...

CITY           SKY/WX    TMP DP  RH WIND       PRES   REMARKS
BROWNSVILLE    PTCLDY    81  78  91 SE5       29.85S
HOUSTON        CLOUDY    74  73  97 NE5       29.89S
COL. STATION   CLOUDY    75  74  96 E6        29.88F
AUSTIN         CLOUDY    75  74  96 CALM      29.86F
WACO           CLOUDY    72  70  93 NE7       29.91S
FORT WORTH     MOCLDY    73  65  75 SE6       29.92F
WICHITA FALLS  MOCLDY    72  69  90 E5        29.94S
LUBBOCK        CLOUDY    67  64  90 SE8       30.02S
EL PASO        CLOUDY    68  65  90 CALM      29.98S
$$

...MARINE OBSERVATIONS...

STATION/POSITION TIME  SKY/WX   TEMP    WIND        PRES    VSBY  WAVE   SWELL
                                AIR SEA DIR/SP/G                  HT/PER HT/PER
                 (UTC)          (F)     (DEG/KT/KT) (MB)    (MI)  (FT/S) (FT/S)
PORT ARANSAS     0600            84 85  150/ 16/ 18 1011.2F
BUOY 90 E PORT A 0600            84 85  150/ 14/ 16 1011.5F         2/ 5
BUOY 45 SE BAFFI 0600            84 85  150/ 14/ 17 1010.3F         3/ 5
BUOY 200 E PT IS 0600            84 86  150/ 12/ 16 1011.5F         2/ 4
BUOY 15 E GALVES 0600            80 83  140/ 10/ 12 1011.5R         2/ 5   2/ 5
$$


USA.gov is the U.S. government's official web portal to all federal, state and local government web resources and services.